Regional Weather Roundup
Issued by NWS

Home | Current Version | Previous Version | Graphics & Text | Print | Product List | Glossary On
Versions: 1 2 3 4 5 6 7 8 9 10 11 12 13 14 15 16 17 18 19 20 21 22 23 24 25 26 27 28 29 30 31 32 33 34 35 36 37 38 39 40 41 42 43 44 45 46 47 48 49 50
000
ASUS43 KLMK 222210
RWRKY
KENTUCKY REGIONAL WEATHER ROUNDUP
NATIONAL WEATHER SERVICE LOUISVILLE KY
600 PM EDT FRI MAY 22 2015

NOTE "FAIR" INDICATES FEW OR NO CLOUDS BELOW 12,000 FEET
WITH NO SIGNIFICANT WEATHER AND/OR OBSTRUCTIONS TO VISIBILITY.

KYZ001>023-026-027-061>063-070>075-222300-
WESTERN AND SOUTH CENTRAL KENTUCKY

CITY           SKY/WX    TMP DP  RH WIND       PRES   REMARKS
PADUCAH        SUNNY     74  45  35 SW5       30.25S
HENDERSON      PTSUNNY   75  48  38 SW6       30.23S
OWENSBORO      MOSUNNY   75  51  42 W7        30.24F
HOPKINSVILLE   MOSUNNY   72  49  44 VRB2      30.25F
BOWLING GREEN  PTSUNNY   73  45  36 NE5       30.25F
GLASGOW        SUNNY     72  43  35 CALM      30.25F
$$

KYZ024-025-028>034-038-045-046-053-222300-
NORTH CENTRAL KENTUCKY

CITY           SKY/WX    TMP DP  RH WIND       PRES   REMARKS
LOUISVILLE/SDF PTSUNNY   76  47  35 W13       30.23S
LOUISVILLE/LOU MOSUNNY   75  45  34 VRB7      30.24S
FORT KNOX      PTSUNNY   71  49  46 W8        30.23S
$$

KYZ035>037-039>044-047>052-055>060-089>105-222300-
NORTHEAST KENTUCKY

CITY           SKY/WX    TMP DP  RH WIND       PRES   REMARKS
LEXINGTON      MOSUNNY   73  45  36 W10       30.25S
COVINGTON      PTSUNNY   73  45  36 W12G17    30.21S
FRANKFORT      MOSUNNY   73  43  33 SW8       30.23S
$$

KYZ054-064>069-076>088-106>120-222300-
SOUTHEAST KENTUCKY

CITY           SKY/WX    TMP DP  RH WIND       PRES   REMARKS
JACKSON        SUNNY     70  41  34 VRB3      30.27R
LONDON         SUNNY     72  37  28 N5        30.26S
SOMERSET       SUNNY     70  39  32 NE3       30.27S
MIDDLESBORO    SUNNY     70  41  34 NE6       30.26S
MONTICELLO     CLEAR     73  43  34 CALM      30.29S
$$




USA.gov is the U.S. government's official web portal to all federal, state and local government web resources and services.